Home > Weather > Guayaquil > Past weeks

Flag for Ecuador Past Weather in Guayaquil, Ecuador — Yesterday and Last 2 Weeks

Now
77 °F

Mostly cloudy.


Feels Like: 79 °F
Forecast: 70 / 87 °F
Wind: 7 mph from Southwest

Location: Guayaquil / Simon Bolivar

Current Time: Aug 27, 2016 at 12:19:42 PM

Latest Report: Aug 27, 2016 at 12:00 PM


Visibility: N/A

Pressure: 29.89 "Hg

Humidity: 69%

Dew Point: 66 °F

Location of GuayaquilLocation

Past Weather in Guayaquil — Graph

°F

Guayaquil Temperature Yesterday

Maximum temperature yesterday: 86 °F (at 2:00 PM)
Minimum temperature yesterday: 70 °F (at 4:00 AM)
Average temperature yesterday: 76 °F

High & Low Weather Summary for the Past Weeks

 TemperatureHumidityPressure
High91 °F (Aug 19, 3:00 PM)88% (Aug 14, 6:00 AM)29.95 "Hg (Aug 14, 6:00 AM)
Low68 °F (Aug 14, 6:00 AM)46% (Aug 19, 3:00 PM)29.71 "Hg (Aug 19, 4:00 PM)
Average78 °F70%29.85 "Hg
* Reported Aug 12 11:00 AM — Aug 27 11:00 AM, Guayaquil, Weather by CustomWeather, © 2016

Note: Actual official high and low records may vary slightly from our data, if they occured in-between our weather recording intervals... More about our weather records

Advertising

Guayaquil Weather History for the Previous 24 Hours

Scroll right to see more
 ConditionsComfort  
Time TempWeatherWind HumidityBarometerVisibility
11:00 AM
Sat, Aug 27
77 °FMostly cloudy.7 mph69%29.92 "HgN/A
10:00 AM75 °FMostly cloudy.7 mph74%29.92 "HgN/A
9:00 AM73 °FOvercast.5 mph74%29.95 "HgN/A
8:00 AM72 °FOvercast.7 mph78%29.92 "HgN/A
7:00 AM70 °FOvercast.9 mph83%29.89 "HgN/A
6:00 AM70 °FPartly cloudy.8 mph83%29.89 "HgN/A
5:00 AM70 °FPassing clouds.8 mph88%29.86 "HgN/A
4:00 AM70 °FPassing clouds.7 mph88%29.86 "HgN/A
3:00 AM73 °FClear.2 mph74%29.86 "Hg10 mi
2:00 AM72 °FClear.6 mph83%29.86 "Hg10 mi
1:00 AM73 °FClear.5 mph78%29.89 "Hg10 mi
12:00 AM72 °FClear.10 mph78%29.89 "Hg10 mi
11:00 PM
Fri, Aug 26
72 °FClear.10 mph78%29.89 "Hg10 mi
10:00 PM73 °FClear.13 mph74%29.89 "Hg10 mi
9:00 PM75 °FClear.17 mph69%29.89 "Hg10 mi
8:00 PM75 °FClear.17 mph74%29.86 "Hg10 mi
7:00 PM77 °FPassing clouds.15 mph69%29.83 "HgN/A
6:00 PM81 °FScattered clouds.14 mph62%29.83 "HgN/A
5:00 PM82 °FScattered clouds.12 mph58%29.80 "HgN/A
4:00 PM86 °FScattered clouds.9 mph52%29.80 "HgN/A
3:00 PM86 °FScattered clouds.3 mph49%29.80 "HgN/A
2:00 PM86 °FScattered clouds.8 mph49%29.83 "HgN/A
1:00 PM84 °FScattered clouds.9 mph51%29.86 "HgN/A
12:00 PM82 °FScattered clouds.3 mph55%29.89 "HgN/A
Weather by CustomWeather, © 2016

See weather overviewHow to use our weather pages